User: anonymous   Login
Location: Unspecified
(0.0000°N, 0.0000°E)
Time: 16:17:43
(UTC+00:00)
Language:

ITUPSAT 1 - Orbit

View from above orbital plane
View from above orbital plane
View from above satellite
View from above satellite

Ground track
Ground track

The orbit data is extracted from the following two-line orbital elements,

1 35935U 09051E   19346.73841362  .00000054  00000-0  23628-4 0  9991
2 35935  98.6117 160.1262 0008038   1.8194 358.3030 14.55574006542391
Epoch (UTC): 12 December 2019 17:43:18
Eccentricity: 0.0008038
inclination: 98.6117°
perigee height: 702 km
apogee height: 713 km
right ascension of ascending node: 160.1262°
argument of perigee: 1.8194°
revolutions per day: 14.55574006
mean anomaly at epoch: 358.3030°
orbit number at epoch: 54239

The dashed part of the orbit path shows where the satellite is in the earth's shadow,  

DLR